Time,TemperatureF,DewpointF,PressureIn,WindDirection,WindDirectionDegrees,WindSpeedMPH,WindSpeedGustMPH,Humidity,HourlyPrecipIn,Conditions,Clouds,dailyrainin,SoftwareType,DateUTC
2013-03-16 00:00:00,52.5,36.8,29.81,West,267,7.0,13.0,55,0.00,,---,0.00,VWS V14.01,2013-03-16 04:00:00,
2013-03-16 00:01:00,52.4,36.7,29.81,SW,233,4.0,13.0,55,0.00,,---,0.00,VWS V14.01,2013-03-16 04:01:00,
2013-03-16 00:03:00,52.5,36.8,29.81,WSW,240,5.0,10.0,55,0.00,,---,0.00,VWS V14.01,2013-03-16 04:03:00,
2013-03-16 00:05:00,52.5,36.8,29.81,WSW,246,3.0,10.0,55,0.00,,---,0.00,VWS V14.01,2013-03-16 04:05:00,
2013-03-16 00:11:00,52.7,37.0,29.81,WSW,244,2.0,10.0,55,0.00,,---,0.00,VWS V14.01,2013-03-16 04:11:00,
2013-03-16 00:18:00,52.8,36.6,29.81,WSW,250,3.0,10.0,54,0.00,,---,0.00,VWS V14.01,2013-03-16 04:18:00,
2013-03-16 00:22:00,52.8,36.6,29.81,WSW,255,4.0,10.0,54,0.00,,---,0.00,VWS V14.01,2013-03-16 04:22:00,
2013-03-16 00:28:00,52.7,37.0,29.81,WSW,240,1.0,10.0,55,0.00,,---,0.00,VWS V14.01,2013-03-16 04:28:00,
2013-03-16 00:34:00,52.6,36.9,29.81,WSW,243,6.0,10.0,55,0.00,,---,0.00,VWS V14.01,2013-03-16 04:34:00,
2013-03-16 00:40:00,52.3,37.1,29.81,SW,234,0.0,10.0,56,0.00,,---,0.00,VWS V14.01,2013-03-16 04:40:00,
2013-03-16 00:48:00,52.1,36.9,29.80,WSW,248,3.0,10.0,56,0.00,,---,0.00,VWS V14.01,2013-03-16 04:48:00,
2013-03-16 00:54:00,52.1,36.9,29.80,WSW,257,5.0,10.0,56,0.00,,---,0.00,VWS V14.01,2013-03-16 04:54:00,
2013-03-16 01:00:00,52.3,37.1,29.80,WSW,250,2.0,10.0,56,0.00,,---,0.00,VWS V14.01,2013-03-16 05:00:00,
2013-03-16 01:06:00,52.4,36.7,29.80,SW,222,4.0,9.0,55,0.00,,---,0.00,VWS V14.01,2013-03-16 05:06:00,
2013-03-16 01:12:00,52.7,37.0,29.80,WSW,238,5.0,11.0,55,0.00,,---,0.00,VWS V14.01,2013-03-16 05:12:00,
2013-03-16 01:18:00,52.8,37.1,29.80,WSW,242,5.0,12.0,55,0.00,,---,0.00,VWS V14.01,2013-03-16 05:18:00,
2013-03-16 01:24:00,52.9,36.7,29.80,WSW,238,7.0,12.0,54,0.00,,---,0.00,VWS V14.01,2013-03-16 05:24:00,
2013-03-16 01:31:00,52.9,37.2,29.79,WSW,238,8.0,12.0,55,0.00,,---,0.00,VWS V14.01,2013-03-16 05:31:00,
2013-03-16 01:37:00,52.8,37.1,29.80,WSW,248,6.0,12.0,55,0.00,,---,0.00,VWS V14.01,2013-03-16 05:37:00,
2013-03-16 01:43:00,52.6,37.4,29.80,WSW,247,2.0,12.0,56,0.00,,---,0.00,VWS V14.01,2013-03-16 05:43:00,
2013-03-16 01:49:00,52.3,37.1,29.79,SW,223,1.0,12.0,56,0.00,,---,0.00,VWS V14.01,2013-03-16 05:49:00,
2013-03-16 01:55:00,52.3,37.1,29.79,West,267,3.0,12.0,56,0.00,,---,0.00,VWS V14.01,2013-03-16 05:55:00,
2013-03-16 02:00:00,52.2,37.0,29.80,SW,230,1.0,12.0,56,0.00,,---,0.00,VWS V14.01,2013-03-16 06:00:00,
2013-03-16 02:01:00,52.2,37.0,29.80,SW,230,3.0,12.0,56,0.00,,---,0.00,VWS V14.01,2013-03-16 06:01:00,
2013-03-16 02:07:00,52.2,37.4,29.79,WSW,238,3.0,8.0,57,0.00,,---,0.00,VWS V14.01,2013-03-16 06:07:00,
2013-03-16 02:14:00,52.2,37.4,29.79,West,259,5.0,9.0,57,0.00,,---,0.00,VWS V14.01,2013-03-16 06:14:00,
2013-03-16 02:20:00,52.1,37.3,29.79,WSW,240,3.0,9.0,57,0.00,,---,0.00,VWS V14.01,2013-03-16 06:20:00,
2013-03-16 02:26:00,52.1,37.3,29.79,WSW,237,6.0,9.0,57,0.00,,---,0.00,VWS V14.01,2013-03-16 06:26:00,
2013-03-16 02:32:00,52.0,37.2,29.79,West,264,1.0,9.0,57,0.00,,---,0.00,VWS V14.01,2013-03-16 06:32:00,
2013-03-16 02:38:00,51.6,37.3,29.79,West,259,0.0,9.0,58,0.00,,---,0.00,VWS V14.01,2013-03-16 06:38:00,
2013-03-16 02:44:00,51.5,37.2,29.79,West,273,3.0,9.0,58,0.00,,---,0.00,VWS V14.01,2013-03-16 06:44:00,
2013-03-16 02:50:00,51.4,37.6,29.79,WSW,258,2.0,9.0,59,0.00,,---,0.00,VWS V14.01,2013-03-16 06:50:00,
2013-03-16 02:56:00,51.4,37.6,29.78,West,265,6.0,9.0,59,0.00,,---,0.00,VWS V14.01,2013-03-16 06:56:00,
2013-03-16 03:00:00,51.5,37.2,29.79,West,266,3.0,9.0,58,0.00,,---,0.00,VWS V14.01,2013-03-16 07:00:00,
2013-03-16 03:02:00,51.5,37.2,29.79,West,266,3.0,9.0,58,0.00,,---,0.00,VWS V14.01,2013-03-16 07:02:00,
2013-03-16 03:08:00,51.5,37.2,29.79,West,268,1.0,5.0,58,0.00,,---,0.00,VWS V14.01,2013-03-16 07:08:00,
2013-03-16 03:14:00,51.4,37.6,29.79,SW,215,0.0,7.0,59,0.00,,---,0.00,VWS V14.01,2013-03-16 07:14:00,
2013-03-16 03:20:00,51.4,37.6,29.79,WSW,249,2.0,7.0,59,0.00,,---,0.00,VWS V14.01,2013-03-16 07:20:00,
2013-03-16 03:27:00,51.3,37.5,29.79,West,269,1.0,7.0,59,0.00,,---,0.00,VWS V14.01,2013-03-16 07:27:00,
2013-03-16 03:33:00,51.4,38.0,29.78,West,271,1.0,7.0,60,0.00,,---,0.00,VWS V14.01,2013-03-16 07:33:00,
2013-03-16 03:39:00,51.5,38.1,29.79,WSW,258,3.0,7.0,60,0.00,,---,0.00,VWS V14.01,2013-03-16 07:39:00,
2013-03-16 03:45:00,51.5,38.1,29.79,SSW,210,7.0,7.0,60,0.00,,---,0.00,VWS V14.01,2013-03-16 07:45:00,
2013-03-16 03:53:00,51.5,38.5,29.78,West,265,1.0,7.0,61,0.00,,---,0.00,VWS V14.01,2013-03-16 07:53:00,
2013-03-16 03:59:00,51.5,38.5,29.78,WSW,251,3.0,7.0,61,0.00,,---,0.00,VWS V14.01,2013-03-16 07:59:00,
2013-03-16 04:00:00,51.4,38.4,29.78,West,263,3.0,7.0,61,0.00,,---,0.00,VWS V14.01,2013-03-16 08:00:00,
2013-03-16 04:05:00,51.3,38.3,29.78,West,265,1.0,5.0,61,0.00,,---,0.00,VWS V14.01,2013-03-16 08:05:00,
2013-03-16 04:11:00,51.2,38.2,29.78,West,273,0.0,7.0,61,0.00,,---,0.00,VWS V14.01,2013-03-16 08:11:00,
2013-03-16 04:17:00,51.3,38.3,29.78,West,273,0.0,7.0,61,0.00,,---,0.00,VWS V14.01,2013-03-16 08:17:00,
2013-03-16 04:23:00,51.2,37.8,29.78,WSW,253,2.0,7.0,60,0.00,,---,0.00,VWS V14.01,2013-03-16 08:23:00,
2013-03-16 04:29:00,51.2,37.8,29.78,West,259,1.0,7.0,60,0.00,,---,0.00,VWS V14.01,2013-03-16 08:29:00,
2013-03-16 04:35:00,51.3,37.9,29.77,WSW,250,3.0,7.0,60,0.00,,---,0.00,VWS V14.01,2013-03-16 08:35:00,
2013-03-16 04:42:00,51.4,38.0,29.78,WSW,248,5.0,9.0,60,0.00,,---,0.00,VWS V14.01,2013-03-16 08:42:00,
2013-03-16 04:48:00,51.3,37.9,29.77,WSW,243,3.0,9.0,60,0.00,,---,0.00,VWS V14.01,2013-03-16 08:48:00,
2013-03-16 04:54:00,51.4,38.0,29.77,SW,225,3.0,9.0,60,0.00,,---,0.00,VWS V14.01,2013-03-16 08:54:00,
2013-03-16 05:00:00,51.6,38.2,29.78,SW,235,1.0,9.0,60,0.00,,---,0.00,VWS V14.01,2013-03-16 09:00:00,
2013-03-16 05:08:00,51.8,38.4,29.77,WSW,246,2.0,8.0,60,0.00,,---,0.00,VWS V14.01,2013-03-16 09:08:00,
2013-03-16 05:14:00,51.8,38.4,29.78,West,265,3.0,8.0,60,0.00,,---,0.00,VWS V14.01,2013-03-16 09:14:00,
2013-03-16 05:20:00,51.7,38.3,29.78,West,278,1.0,8.0,60,0.00,,---,0.00,VWS V14.01,2013-03-16 09:20:00,
2013-03-16 05:28:00,51.5,38.1,29.78,WSW,242,0.0,8.0,60,0.00,,---,0.00,VWS V14.01,2013-03-16 09:28:00,
2013-03-16 05:34:00,51.4,38.4,29.78,West,279,2.0,8.0,61,0.00,,---,0.00,VWS V14.01,2013-03-16 09:34:00,
2013-03-16 05:40:00,51.4,38.4,29.78,WSW,258,1.0,8.0,61,0.00,,---,0.00,VWS V14.01,2013-03-16 09:40:00,
2013-03-16 05:46:00,51.4,38.0,29.78,WSW,240,1.0,8.0,60,0.00,,---,0.00,VWS V14.01,2013-03-16 09:46:00,
2013-03-16 05:52:00,51.4,38.0,29.77,SW,219,1.0,8.0,60,0.00,,---,0.00,VWS V14.01,2013-03-16 09:52:00,
2013-03-16 05:59:00,51.5,38.1,29.77,SW,216,0.0,8.0,60,0.00,,---,0.00,VWS V14.01,2013-03-16 09:59:00,
2013-03-16 06:00:00,51.5,38.5,29.78,SW,223,1.0,8.0,61,0.00,,---,0.00,VWS V14.01,2013-03-16 10:00:00,
2013-03-16 06:05:00,51.6,38.6,29.78,SW,223,2.0,2.0,61,0.00,,---,0.00,VWS V14.01,2013-03-16 10:05:00,
2013-03-16 06:11:00,51.7,38.7,29.79,NW,319,2.0,3.0,61,0.00,,---,0.00,VWS V14.01,2013-03-16 10:11:00,
2013-03-16 06:17:00,51.5,38.5,29.78,WNW,295,2.0,4.0,61,0.00,,---,0.00,VWS V14.01,2013-03-16 10:17:00,
2013-03-16 06:23:00,51.5,38.9,29.78,West,270,0.0,4.0,62,0.00,,---,0.00,VWS V14.01,2013-03-16 10:23:00,
2013-03-16 06:29:00,51.5,38.9,29.79,WSW,245,2.0,4.0,62,0.00,,---,0.00,VWS V14.01,2013-03-16 10:29:00,
2013-03-16 06:35:00,51.5,38.9,29.78,WSW,244,1.0,4.0,62,0.00,,---,0.00,VWS V14.01,2013-03-16 10:35:00,
2013-03-16 06:41:00,51.5,38.9,29.79,WSW,244,0.0,4.0,62,0.00,,---,0.00,VWS V14.01,2013-03-16 10:41:00,
2013-03-16 06:47:00,51.5,38.9,29.79,WSW,244,0.0,4.0,62,0.00,,---,0.00,VWS V14.01,2013-03-16 10:47:00,
2013-03-16 06:53:00,51.5,38.9,29.79,WSW,244,0.0,4.0,62,0.00,,---,0.00,VWS V14.01,2013-03-16 10:53:00,
2013-03-16 06:59:00,51.4,39.2,29.80,WSW,246,0.0,4.0,63,0.00,,---,0.00,VWS V14.01,2013-03-16 10:59:00,
2013-03-16 07:00:00,51.3,39.2,29.80,WSW,246,2.0,4.0,63,0.00,,---,0.00,VWS V14.01,2013-03-16 11:00:00,
2013-03-16 07:05:00,51.2,39.0,29.80,WSW,246,0.0,2.0,63,0.00,,---,0.00,VWS V14.01,2013-03-16 11:05:00,
2013-03-16 07:11:00,51.2,39.0,29.79,WSW,248,0.0,3.0,63,0.00,,---,0.00,VWS V14.01,2013-03-16 11:11:00,
2013-03-16 07:17:00,51.1,39.0,29.79,WSW,248,0.0,3.0,63,0.00,,---,0.00,VWS V14.01,2013-03-16 11:17:00,
2013-03-16 07:23:00,51.1,39.4,29.79,WSW,248,0.0,3.0,64,0.00,,---,0.00,VWS V14.01,2013-03-16 11:23:00,
2013-03-16 07:30:00,51.0,39.3,29.79,WSW,248,0.0,3.0,64,0.00,,---,0.00,VWS V14.01,2013-03-16 11:30:00,
2013-03-16 07:36:00,50.9,39.2,29.78,WSW,248,0.0,3.0,64,0.00,,---,0.00,VWS V14.01,2013-03-16 11:36:00,
2013-03-16 07:42:00,50.8,39.5,29.77,WSW,248,0.0,3.0,65,0.00,,---,0.00,VWS V14.01,2013-03-16 11:42:00,
2013-03-16 07:48:00,50.3,40.2,29.76,WSW,244,0.0,3.0,68,0.00,,---,0.00,VWS V14.01,2013-03-16 11:48:00,
2013-03-16 19:30:00,57.5,54.9,29.70,North,9,3.0,5.0,91,0.23,,---,0.23,VWS V14.01,2013-03-16 23:30:00,
2013-03-16 19:36:00,57.3,54.7,29.71,NNW,333,0.0,6.0,91,0.24,,---,0.24,VWS V14.01,2013-03-16 23:36:00,
2013-03-16 19:42:00,57.2,54.9,29.72,NW,311,2.0,8.0,92,0.25,,---,0.25,VWS V14.01,2013-03-16 23:42:00,
2013-03-16 19:48:00,57.1,55.1,29.71,NNW,327,0.0,8.0,93,0.28,,---,0.28,VWS V14.01,2013-03-16 23:48:00,
2013-03-16 19:54:00,57.0,55.0,29.71,WSW,240,4.0,8.0,93,0.29,,---,0.29,VWS V14.01,2013-03-16 23:54:00,
2013-03-16 20:00:00,56.9,54.9,29.70,NW,325,1.0,8.0,93,0.30,,---,0.30,VWS V15.00,2013-03-17 00:00:00,
2013-03-16 20:01:00,56.9,54.9,29.70,NW,305,2.0,8.0,93,0.30,,---,0.30,VWS V14.01,2013-03-17 00:01:00,
2013-03-16 20:07:00,56.8,55.1,29.71,West,281,2.0,6.0,94,0.00,,---,0.30,VWS V14.01,2013-03-17 00:07:00,
2013-03-16 20:13:00,56.8,55.1,29.69,West,275,1.0,6.0,94,0.00,,---,0.30,VWS V14.01,2013-03-17 00:13:00,
2013-03-16 20:19:00,56.7,55.0,29.68,West,273,0.0,6.0,94,0.00,,---,0.30,VWS V14.01,2013-03-17 00:19:00,
2013-03-16 20:25:00,56.4,54.7,29.67,SSW,209,1.0,6.0,94,0.00,,---,0.30,VWS V14.01,2013-03-17 00:25:00,
2013-03-16 20:31:00,56.1,54.4,29.68,SW,235,0.0,6.0,94,0.00,,---,0.30,VWS V14.01,2013-03-17 00:31:00,
2013-03-16 20:37:00,55.6,53.9,29.69,SW,225,0.0,6.0,94,0.00,,---,0.30,VWS V14.01,2013-03-17 00:37:00,
2013-03-16 20:43:00,55.3,53.6,29.70,SW,225,0.0,6.0,94,0.00,,---,0.30,VWS V14.01,2013-03-17 00:43:00,
2013-03-16 20:49:00,55.0,53.6,29.70,SW,225,0.0,6.0,95,0.00,,---,0.30,VWS V14.01,2013-03-17 00:49:00,
2013-03-16 20:55:00,55.0,53.6,29.71,SW,225,0.0,6.0,95,0.00,,---,0.30,VWS V14.01,2013-03-17 00:55:00,
2013-03-16 21:00:00,55.1,53.7,29.72,NW,304,2.0,6.0,95,0.00,,---,0.30,VWS V15.00,2013-03-17 01:00:00,
2013-03-16 21:01:00,55.1,53.7,29.72,SW,226,2.0,6.0,95,0.00,,---,0.30,VWS V14.01,2013-03-17 01:01:00,
2013-03-16 21:07:00,55.2,54.1,29.73,West,261,3.0,4.0,96,0.00,,---,0.30,VWS V14.01,2013-03-17 01:07:00,
2013-03-16 21:14:00,55.2,54.1,29.73,West,261,0.0,4.0,96,0.00,,---,0.30,VWS V14.01,2013-03-17 01:14:00,
2013-03-16 21:20:00,55.1,54.0,29.73,West,261,0.0,4.0,96,0.00,,---,0.30,VWS V14.01,2013-03-17 01:20:00,
2013-03-16 21:28:00,54.9,53.8,29.73,West,261,0.0,4.0,96,0.00,,---,0.30,VWS V14.01,2013-03-17 01:28:00,
2013-03-16 21:34:00,54.7,53.6,29.73,West,261,0.0,4.0,96,0.00,,---,0.30,VWS V14.01,2013-03-17 01:34:00,
2013-03-16 21:40:00,54.5,53.4,29.73,West,261,0.0,4.0,96,0.00,,---,0.30,VWS V14.01,2013-03-17 01:40:00,
2013-03-16 21:46:00,54.4,53.3,29.73,West,261,0.0,4.0,96,0.00,,---,0.30,VWS V14.01,2013-03-17 01:46:00,
2013-03-16 21:52:00,54.2,53.1,29.74,West,261,0.0,4.0,96,0.00,,---,0.30,VWS V14.01,2013-03-17 01:52:00,
2013-03-16 21:58:00,54.0,52.9,29.74,West,261,0.0,4.0,96,0.00,,---,0.30,VWS V14.01,2013-03-17 01:58:00,
2013-03-16 22:04:00,53.7,52.6,29.74,West,261,0.0,0.0,96,0.00,,---,0.30,VWS V14.01,2013-03-17 02:04:00,
2013-03-16 22:10:00,53.5,52.4,29.74,West,261,0.0,0.0,96,0.00,,---,0.30,VWS V14.01,2013-03-17 02:10:00,
2013-03-16 22:16:00,53.7,52.6,29.75,NNW,344,2.0,4.0,96,0.00,,---,0.30,VWS V14.01,2013-03-17 02:16:00,
2013-03-16 22:23:00,53.7,52.9,29.77,NW,319,2.0,8.0,97,0.00,,---,0.30,VWS V14.01,2013-03-17 02:23:00,
2013-03-16 22:29:00,54.1,53.3,29.77,NNW,345,0.0,8.0,97,0.00,,---,0.30,VWS V14.01,2013-03-17 02:29:00,
2013-03-16 22:35:00,54.5,53.7,29.78,NNW,340,0.0,8.0,97,0.00,,---,0.30,VWS V14.01,2013-03-17 02:35:00,
2013-03-16 22:43:00,54.8,54.0,29.78,NNW,327,0.0,8.0,97,0.00,,---,0.30,VWS V14.01,2013-03-17 02:43:00,
2013-03-16 22:49:00,54.9,54.1,29.79,NW,325,2.0,8.0,97,0.00,,---,0.30,VWS V14.01,2013-03-17 02:49:00,
2013-03-16 22:55:00,55.0,54.2,29.79,NW,319,0.0,8.0,97,0.00,,---,0.30,VWS V14.01,2013-03-17 02:55:00,
2013-03-16 23:00:00,54.8,54.0,29.79,NW,319,0.0,8.0,97,0.00,,---,0.30,VWS V15.00,2013-03-17 03:00:00,
2013-03-16 23:02:00,54.8,54.0,29.79,NW,319,0.0,8.0,97,0.00,,---,0.30,VWS V14.01,2013-03-17 03:02:00,
2013-03-16 23:07:00,54.7,53.9,29.79,NW,323,0.0,3.0,97,0.00,,---,0.30,VWS V14.01,2013-03-17 03:07:00,
2013-03-16 23:14:00,54.6,53.8,29.79,NW,325,0.0,3.0,97,0.00,,---,0.30,VWS V14.01,2013-03-17 03:14:00,
2013-03-16 23:20:00,54.4,53.6,29.80,NW,325,0.0,3.0,97,0.00,,---,0.30,VWS V14.01,2013-03-17 03:20:00,
2013-03-16 23:26:00,54.3,53.5,29.81,NNE,12,2.0,6.0,97,0.00,,---,0.30,VWS V14.01,2013-03-17 03:26:00,
2013-03-16 23:32:00,54.4,53.6,29.81,ENE,78,3.0,10.0,97,0.00,,---,0.30,VWS V14.01,2013-03-17 03:32:00,
2013-03-16 23:38:00,54.1,53.3,29.81,NNW,330,2.0,12.0,97,0.00,,---,0.30,VWS V14.01,2013-03-17 03:38:00,
2013-03-16 23:44:00,53.7,52.9,29.81,East,84,5.0,12.0,97,0.00,,---,0.30,VWS V14.01,2013-03-17 03:44:00,
2013-03-16 23:50:00,53.1,52.0,29.82,North,360,5.0,12.0,96,0.00,,---,0.30,VWS V14.01,2013-03-17 03:50:00,
2013-03-16 23:56:00,51.6,50.2,29.82,NNW,336,4.0,12.0,95,0.00,,---,0.30,VWS V14.01,2013-03-17 03:56:00,